Vorticity
7 8 8 5 7 12 15 12 6 4 6 7 8 7 8 8 7 7 7 7 8 7 5 6 6 7 7 5 5 7 8 8 8 6 5 6 5 4 5 5 6 8 9 11 13 13 12 11 10 9 8 7 7 6 8 10 9 8 9 8 8 7 7 8 7 6 5 4 1 1 2 4 4 5 6 7 8 8 6 6 6 6 6 5 5
6 9 10 9 6 7 12 14 11 6 4 6 9 9 9 8 7 7 7 7 8 7 6 5 6 7 8 6 5 5 7 8 8 7 5 4 5 5 4 4 4 5 6 7 10 12 13 13 13 13 11 9 7 6 8 9 9 9 9 9 9 8 8 8 7 7 7 7 7 7 8 10 9 9 9 7 6 5 4 4 5 5 4 4 5
4 6 7 10 9 6 9 13 13 10 4 3 7 10 10 9 8 7 7 7 8 8 7 6 5 6 7 7 5 4 6 7 7 8 7 5 4 4 5 6 5 4 4 4 5 6 8 10 11 12 13 12 9 7 6 6 7 8 8 8 8 8 8 8 9 10 8 9 10 10 10 9 7 5 5 4 3 3 3 4 5 5 6 7 7
4 3 3 8 10 7 6 12 15 12 7 2 3 7 10 10 9 8 7 7 8 9 8 7 5 5 6 7 6 4 5 7 7 8 9 8 6 4 5 6 6 6 5 4 3 3 4 6 8 9 10 11 11 10 8 5 5 5 6 6 5 5 6 6 7 8 7 6 6 6 6 4 3 2 2 1 0 1 3 4 6 7 8 9 10
2 2 3 5 8 7 6 12 17 15 10 4 2 4 7 10 9 8 8 8 8 9 9 9 7 6 5 6 7 6 5 6 7 8 8 9 8 6 5 5 6 7 7 6 4 3 4 5 5 6 7 7 9 11 10 8 6 4 4 4 3 3 2 2 3 3 4 4 3 2 2 2 2 3 4 5 5 6 8 10 11 11 11 12 12
7 3 3 6 8 7 6 7 12 16 14 8 3 1 3 7 8 6 7 8 10 11 10 10 10 8 7 6 6 6 6 5 7 8 8 9 9 8 6 5 5 5 7 7 7 6 5 4 4 5 6 6 7 7 8 9 9 8 7 6 5 4 3 3 3 2 2 3 4 4 4 5 6 8 10 11 12 13 14 14 13 12 11 11 9
11 5 5 11 11 8 7 6 8 13 15 11 7 4 2 4 6 5 4 3 5 8 10 11 11 10 9 8 7 6 6 6 5 6 8 9 9 10 9 7 6 6 6 7 7 7 7 6 5 5 5 5 6 6 6 7 8 8 9 9 9 8 7 7 7 6 6 6 7 9 10 12 11 12 14 15 14 14 14 11 8 7 7 6 5
8 6 6 9 11 9 8 5 5 9 12 11 10 8 6 4 4 5 5 3 2 3 5 8 10 11 10 9 8 7 6 6 6 6 7 8 9 9 9 9 8 7 6 6 6 7 7 7 7 6 6 5 5 5 6 7 7 7 8 8 9 9 9 10 10 10 10 10 11 11 12 13 12 13 14 13 11 10 8 6 5 4 5 4 5
12 7 6 7 9 11 9 5 4 6 8 8 9 9 9 8 6 5 5 5 5 4 3 4 6 9 10 10 10 8 6 7 7 6 7 7 8 8 9 9 9 8 8 6 6 6 7 7 7 7 7 7 6 6 6 6 6 6 6 6 7 8 8 9 9 10 10 10 11 11 11 10 9 9 9 7 7 5 4 4 5 5 6 6 5
23 15 13 14 13 12 10 6 3 6 8 7 7 10 11 10 8 7 5 5 6 6 5 5 4 4 7 9 10 10 8 7 6 7 7 7 7 8 8 8 8 8 8 7 7 6 6 6 7 7 7 7 7 7 7 7 6 6 7 6 6 7 7 7 8 8 8 8 8 8 7 6 5 5 5 5 5 4 4 5 5 5 6 5 4
25 20 15 14 11 7 8 8 8 9 9 6 5 6 7 9 9 9 7 5 5 5 5 5 5 4 4 6 8 9 10 10 8 7 7 7 7 7 8 8 8 8 8 8 8 7 6 6 5 6 6 6 6 6 6 7 6 6 7 6 6 7 6 6 6 6 5 5 5 5 4 4 4 5 5 4 5 5 4 4 4 3 2 2 2
23 26 19 14 13 8 7 9 10 10 10 8 6 4 4 6 8 10 9 6 6 6 5 4 5 5 5 5 5 6 8 9 9 8 7 7 7 7 7 8 7 8 8 7 7 7 7 7 6 5 5 5 5 5 5 6 5 6 6 6 6 6 6 6 5 6 6 5 4 4 3 3 4 5 4 4 4 5 4 4 3 3 2 2 2
11 17 17 18 23 21 17 14 8 4 7 12 13 9 7 7 8 12 14 10 6 5 6 6 5 4 4 5 6 6 6 7 7 6 6 6 6 7 7 8 8 8 7 6 6 6 6 7 7 6 6 5 4 4 4 5 4 5 6 6 6 6 5 5 5 5 5 4 4 4 4 4 4 4 4 4 5 4 4 4 3 3 4 3 3
2 6 9 11 15 18 22 28 23 12 11 18 19 13 9 7 7 10 14 13 9 7 8 7 4 3 4 5 6 8 9 9 8 7 6 4 4 4 4 5 6 7 7 7 6 6 6 6 6 6 6 5 5 4 4 4 4 5 5 5 6 5 5 5 5 5 5 4 4 4 3 4 4 3 3 4 5 5 4 5 5 4 5 5 5
3 7 7 4 5 7 14 27 33 26 19 18 15 10 9 8 6 6 10 13 13 9 8 6 3 4 6 6 6 6 6 8 10 10 10 8 7 6 6 6 6 6 6 7 6 6 6 6 6 6 6 6 5 4 4 3 3 5 6 6 5 5 5 4 4 4 4 4 5 5 3 3 4 5 4 4 6 6 6 6 6 5 6 6 7
-3 -6 -7 -5 -1 3 7 14 23 26 23 16 10 8 8 7 7 8 11 15 15 11 8 6 4 5 6 5 5 5 5 6 6 7 7 8 10 10 9 9 9 9 8 8 7 7 7 8 8 7 7 7 6 6 5 4 3 4 6 6 6 6 6 4 3 5 5 4 5 5 4 3 5 6 6 6 7 8 8 8 7 6 8 8 8
2 -3 -3 0 -2 -3 3 10 13 16 19 18 14 11 10 9 11 13 14 16 17 13 8 4 3 6 7 4 4 6 8 9 7 4 3 4 5 6 7 7 8 9 9 9 9 8 7 8 9 9 10 9 9 9 8 7 7 6 6 6 6 9 8 5 4 6 6 6 6 7 7 6 6 7 8 8 8 9 9 9 7 6 9 10 9
5 3 3 5 2 -3 -1 3 4 3 6 11 11 10 14 16 15 15 13 15 17 18 16 14 13 11 6 4 6 6 7 10 12 9 6 5 4 4 4 5 5 6 7 7 7 8 7 6 5 5 6 6 7 8 8 9 9 9 10 8 8 11 11 7 6 7 7 8 8 8 9 8 7 7 8 8 8 9 10 9 7 6 8 10 9
5 5 2 2 3 3 -1 -3 -1 -0 2 6 3 0 3 4 4 6 7 9 15 20 23 26 25 16 4 3 8 8 5 7 10 10 10 11 11 9 7 5 4 4 5 5 5 6 5 6 6 6 5 4 3 4 4 6 8 8 10 10 11 13 11 7 7 8 8 10 11 10 10 10 9 8 8 8 8 8 8 9 7 5 6 7 6
5 5 5 2 2 4 3 2 4 4 5 6 3 1 0 -2 -1 1 -2 -1 5 9 11 16 21 20 13 9 11 10 8 7 6 5 4 8 12 12 10 9 6 4 4 5 6 6 6 5 5 5 6 6 6 6 5 5 6 7 9 11 12 12 9 6 7 9 9 10 11 11 12 11 10 10 10 9 8 8 8 8 7 6 6 5 4
7 6 6 5 3 3 3 3 4 5 5 5 4 5 5 4 5 3 -2 -1 3 4 3 4 8 14 17 17 16 15 14 13 10 6 2 3 8 9 8 7 5 3 4 5 4 4 6 7 6 4 4 4 4 5 5 5 6 7 7 8 9 10 10 10 10 10 10 10 9 10 11 11 10 10 9 8 8 7 7 7 7 6 4 4 3
9 8 8 8 7 6 4 3 3 3 4 3 2 3 3 5 6 4 3 4 4 4 5 4 3 5 10 14 17 16 16 18 19 15 8 4 5 8 8 8 7 6 8 10 7 4 5 7 8 6 5 4 4 3 3 4 4 5 5 5 5 6 7 9 11 11 11 10 9 8 9 9 10 10 9 9 8 7 7 7 6 4 2 2 3
8 8 8 8 8 9 8 6 5 4 4 3 2 1 0 2 3 3 4 4 2 2 3 3 3 5 5 8 11 12 12 15 19 21 19 12 7 5 6 8 9 10 11 11 9 7 6 6 6 6 6 6 5 4 4 3 3 4 5 4 3 4 4 4 6 8 9 10 9 8 7 7 8 9 9 9 7 7 7 6 4 3 2 1 1
8 8 8 7 7 8 8 8 8 7 7 6 5 3 1 1 1 3 4 4 2 2 1 -0 1 4 5 6 8 9 10 10 10 13 16 16 14 10 7 8 9 9 10 12 11 9 9 7 5 6 7 6 5 6 8 7 5 4 4 4 4 3 4 4 4 5 7 8 9 8 7 6 6 7 7 8 7 7 7 5 3 2 1 1 1
9 8 8 8 7 6 7 8 8 8 8 9 9 8 7 6 5 6 6 6 6 5 3 2 1 2 4 5 7 9 9 8 9 9 7 7 11 14 13 14 14 12 11 11 10 10 11 11 9 7 6 6 7 8 9 10 12 9 6 6 6 5 4 4 4 5 5 6 6 6 5 5 6 6 6 6 7 7 6 5 3 2 1 1 2
11 9 8 8 8 7 7 7 7 7 7 8 9 9 10 10 9 9 9 9 9 8 7 6 4 3 4 5 7 9 8 8 11 13 9 6 7 11 14 14 15 17 18 15 11 10 12 11 6 4 5 9 13 11 7 7 9 8 6 7 7 7 7 5 5 6 7 7 6 6 5 5 4 5 5 5 5 5 4 3 2 2 2 2 3
10 10 10 9 9 8 8 7 7 7 7 7 8 8 9 9 9 10 10 10 10 10 10 10 8 7 6 6 7 8 8 8 8 10 12 10 6 8 14 14 10 11 13 13 11 12 14 15 14 9 8 10 14 13 7 3 4 5 7 8 8 9 8 5 5 6 7 8 9 9 9 8 6 5 5 4 4 4 4 4 4 4 4 3 6
7 8 8 10 10 11 10 8 7 7 7 7 7 7 7 8 8 8 9 9 10 10 9 10 10 10 9 9 9 8 8 9 9 10 13 16 12 9 12 15 15 14 15 14 11 6 5 13 24 25 15 8 12 16 12 5 5 8 9 8 8 9 9 7 6 6 5 6 8 8 10 13 13 11 10 9 6 6 6 5 4 5 5 4 6
7 8 8 10 11 13 14 13 11 9 8 7 7 6 6 7 8 8 8 8 9 10 9 8 9 10 10 10 9 10 9 9 9 8 10 14 15 14 15 15 13 12 15 19 20 16 10 8 16 26 22 11 13 24 21 8 3 6 8 9 9 10 11 10 9 9 10 10 10 9 9 10 11 10 10 10 8 7 8 8 7 7 7 6 8
8 8 8 7 8 10 12 14 14 14 13 11 9 8 6 6 6 7 7 7 8 8 8 9 9 9 10 10 9 10 10 9 8 7 7 6 6 7 10 8 4 1 5 9 15 20 20 12 9 18 24 19 18 25 22 11 7 7 6 8 11 13 13 13 10 10 11 11 10 10 10 10 10 10 9 9 7 6 6 7 7 7 8 8 10
11 10 10 9 8 7 7 8 10 12 13 13 12 11 10 9 8 7 7 7 8 8 8 8 8 8 9 9 9 8 9 9 9 8 9 8 4 1 0 -1 -2 -1 2 4 7 12 16 15 10 13 20 23 22 17 9 6 14 18 12 7 9 10 10 11 9 8 9 9 8 8 9 11 14 16 15 14 13 11 10 9 8 8 8 8 11
12 12 12 11 10 9 7 7 7 8 9 10 11 12 13 13 12 12 10 9 8 9 8 8 8 8 8 8 8 8 7 8 8 8 9 10 10 9 8 8 7 6 3 3 5 8 12 15 15 13 12 13 14 14 10 8 12 15 12 8 7 6 6 8 7 5 7 7 6 7 9 9 9 12 14 14 14 14 14 13 13 13 12 12 14
11 11 10 10 10 11 11 10 8 7 7 8 8 9 10 11 12 13 13 12 10 9 9 9 9 8 8 8 8 8 7 7 6 6 8 9 9 9 9 10 12 14 12 9 7 5 6 10 15 18 19 14 9 12 18 19 17 15 14 13 10 10 13 16 13 9 8 6 5 6 6 5 6 9 12 12 11 11 12 12 11 11 13 14 15
9 9 9 10 10 10 10 10 10 10 9 9 9 10 9 9 9 8 9 10 11 10 10 10 10 9 8 8 7 7 8 8 7 6 5 6 7 7 6 5 5 7 9 10 8 5 4 4 5 10 18 24 22 18 15 13 11 12 15 15 12 11 12 12 11 11 11 10 9 7 4 4 7 9 9 10 11 12 14 16 14 12 11 11 12
10 9 8 8 7 8 8 9 10 10 10 9 9 9 9 9 8 7 6 6 7 8 9 10 11 11 10 9 8 7 7 7 7 8 7 6 6 6 7 6 4 2 2 3 4 4 3 3 2 -0 1 9 18 21 20 15 10 7 7 6 4 4 5 6 7 8 8 10 12 12 10 8 8 8 7 9 12 14 16 17 16 14 12 11 12
11 11 10 10 10 11 10 9 9 9 10 10 10 9 9 8 8 8 8 7 6 6 6 6 6 7 8 9 9 9 8 7 6 6 7 7 7 7 7 7 6 5 4 2 0 0 -0 -1 -0 -1 -3 -4 -2 3 9 14 17 18 18 14 10 7 7 8 9 9 9 11 13 16 15 11 7 7 9 11 13 15 17 17 15 13 10 7 9
13 13 14 14 13 13 13 13 13 12 12 11 11 11 11 11 10 10 9 9 9 8 7 6 5 4 4 6 8 8 8 8 7 7 6 6 7 7 8 8 8 8 8 6 5 3 2 0 -2 -2 -1 -1 -2 -3 -2 -0 3 8 13 16 18 16 12 9 8 8 9 9 11 15 18 15 8 4 5 9 12 16 17 15 14 13 10 7 8
14 13 14 14 14 13 13 13 14 14 14 14 14 14 14 14 14 13 12 11 10 9 9 9 9 8 6 5 5 5 6 6 6 7 6 6 7 6 6 7 8 7 7 8 9 8 6 5 4 1 -0 -1 -1 1 2 2 1 1 2 4 9 12 13 14 13 12 11 11 9 11 15 18 16 10 4 2 4 8 10 10 10 11 11 11 10
13 14 14 14 14 14 15 15 15 16 17 18 18 19 18 17 17 16 15 14 13 13 12 12 12 12 10 7 5 5 5 5 5 5 5 5 5 6 5 5 5 6 6 7 8 9 9 9 8 6 5 3 1 -0 0 2 3 3 2 1 1 1 3 6 9 11 13 14 14 12 11 14 17 16 12 6 2 -1 1 4 5 5 6 7 8
12 13 14 14 14 14 14 14 14 14 14 15 16 17 17 18 19 18 18 17 16 16 15 15 14 14 14 12 11 9 8 6 5 5 6 6 5 5 6 5 4 4 4 4 5 6 8 9 10 10 9 8 6 5 3 2 1 1 2 3 2 1 -0 -1 -1 1 3 5 8 11 11 11 13 15 16 16 11 5 3 2 3 4 4 4 5
10 10 10 11 11 11 11 10 10 10 11 11 11 11 12 13 14 15 16 17 18 18 17 16 16 15 15 14 14 13 12 11 10 8 8 8 8 7 7 6 5 4 3 3 3 3 3 5 7 9 10 10 9 9 7 5 3 2 1 1 1 1 2 2 1 0 0 -0 0 2 3 5 7 9 12 16 18 16 13 9 5 5 6 6 6
10 10 9 9 8 8 8 9 8 8 8 8 8 8 8 8 9 10 11 13 15 16 17 17 17 16 15 14 14 14 14 14 14 13 11 9 8 8 7 6 6 5 4 4 3 3 3 2 2 3 6 7 9 10 10 9 8 6 4 3 2 1 1 2 3 3 4 4 3 2 1 1 3 4 6 9 12 15 17 16 12 8 5 4 5
12 11 10 9 9 8 7 8 8 8 8 7 6 6 6 6 6 7 7 9 10 11 12 14 15 15 16 15 14 14 14 13 14 14 14 12 11 10 9 9 8 7 6 6 5 5 4 4 3 2 2 3 4 6 7 8 9 9 8 7 6 5 4 2 1 1 2 4 5 6 5 4 4 4 5 6 7 9 12 15 15 13 10 7 6
12 12 11 10 9 8 6 6 6 6 6 6 5 5 5 5 5 5 4 4 5 5 6 8 10 11 13 14 15 15 15 15 14 13 14 14 14 13 12 11 10 9 8 7 7 7 7 7 5 4 3 2 2 3 3 5 6 8 9 10 10 9 8 7 6 4 4 4 4 5 5 4 4 4 5 5 5 5 6 9 12 14 14 13 10
9 11 12 12 10 6 3 1 1 0 1 4 6 7 7 7 7 7 7 6 5 5 5 5 6 6 7 9 11 13 14 14 15 14 14 14 14 14 14 13 12 11 10 9 8 8 8 8 9 8 6 4 3 2 2 2 3 3 5 7 9 10 11 10 10 9 8 6 5 4 5 5 4 3 4 4 5 6 6 6 8 11 13 14 13
8 9 11 12 11 7 1 -2 -4 -5 -3 1 5 7 8 8 6 5 5 6 6 7 7 7 7 7 7 7 8 10 11 11 12 13 13 14 14 14 14 14 14 13 12 11 10 10 9 8 9 9 9 9 7 5 4 3 2 2 2 3 4 6 8 10 10 11 11 10 9 7 6 6 6 5 5 5 5 7 8 7 6 7 9 11 12
9 9 10 11 11 8 3 -1 -3 -4 -2 1 4 6 7 6 4 4 3 -0 -2 1 7 10 11 10 9 9 9 10 10 10 10 10 11 12 13 14 15 16 16 16 15 13 12 11 11 10 9 9 9 9 9 8 7 5 4 3 3 2 2 3 4 5 8 9 10 11 12 11 10 10 9 8 7 6 6 7 8 8 7 6 7 9 10
12 11 11 12 12 11 9 6 3 3 4 4 6 7 7 5 3 3 0 -4 -2 6 14 18 16 14 13 13 13 13 13 13 12 11 10 10 11 12 14 15 15 15 15 15 15 13 12 11 11 10 9 9 9 9 9 8 7 6 5 4 3 3 2 2 4 5 6 7 9 10 11 11 11 11 10 9 8 7 7 7 8 8 8 9 9
13 13 13 13 13 13 13 12 10 10 10 9 9 9 8 5 2 2 3 7 14 21 23 21 18 16 15 13 12 12 12 12 12 11 11 12 12 13 13 13 13 14 14 15 15 15 15 13 13 12 11 10 9 9 8 8 7 7 7 6 6 5 4 2 2 1 2 4 5 6 7 8 9 10 11 11 10 9 8 8 8 9 9 9 8
20 19 18 17 16 15 14 14 13 13 13 12 11 10 9 9 10 13 16 20 22 21 18 16 15 15 13 12 12 12 12 12 11 10 9 9 9 10 10 10 10 11 13 13 14 15 15 15 14 14 13 12 11 10 9 9 9 8 7 7 7 7 6 5 4 3 3 3 3 3 4 5 6 7 8 10 11 11 11 10 9 10 10 9 7
22 21 21 20 19 18 16 16 15 14 14 15 15 15 16 17 17 17 17 16 15 14 13 12 11 10 8 7 6 5 4 4 4 4 5 7 8 10 12 13 13 13 14 14 15 15 15 15 16 15 14 13 13 13 12 11 9 8 7 7 7 7 7 6 5 5 4 3 3 3 3 4 5 4 4 6 7 8 10 12 11 11 11 12 11
Height
5929 5929 5929 5930 5932 5934 5937 5939 5941 5943 5945 5947 5948 5949 5950 5951 5952 5952 5953 5953 5954 5956 5957 5958 5959 5959 5959 5959 5959 5960 5961 5962 5963 5964 5965 5965 5966 5966 5967 5967 5968 5968 5968 5968 5968 5969 5969 5969 5970 5970 5971 5972 5972 5972 5973 5973 5972 5973 5973 5973 5973 5973 5974 5974 5974 5975 5975 5975 5975 5975 5974 5974 5974 5974 5973 5973 5972 5972 5972 5971 5971 5970 5970 5969 5968
5927 5928 5929 5929 5930 5932 5934 5936 5938 5941 5943 5945 5946 5948 5949 5950 5951 5951 5952 5952 5953 5954 5955 5957 5958 5959 5959 5959 5959 5959 5960 5961 5962 5963 5964 5964 5965 5966 5966 5967 5968 5968 5968 5968 5968 5968 5968 5969 5969 5970 5970 5971 5971 5971 5972 5972 5972 5972 5972 5972 5972 5972 5973 5973 5973 5974 5974 5974 5974 5973 5973 5973 5973 5972 5972 5972 5972 5972 5971 5971 5970 5970 5969 5969 5968
5924 5926 5927 5929 5930 5930 5931 5933 5935 5937 5940 5942 5944 5946 5947 5949 5950 5951 5951 5951 5952 5952 5954 5955 5957 5958 5959 5959 5960 5960 5960 5960 5960 5961 5962 5963 5964 5964 5965 5966 5967 5967 5968 5968 5968 5968 5968 5968 5968 5969 5969 5969 5970 5970 5970 5971 5971 5971 5971 5971 5971 5972 5972 5972 5972 5973 5973 5973 5973 5973 5972 5972 5972 5972 5971 5971 5971 5971 5970 5970 5969 5969 5968 5968 5967
5922 5923 5925 5927 5928 5929 5929 5931 5932 5934 5936 5938 5941 5944 5945 5947 5948 5949 5950 5951 5951 5952 5953 5954 5955 5957 5958 5959 5959 5960 5960 5960 5960 5960 5961 5962 5962 5963 5964 5965 5965 5966 5967 5967 5967 5967 5967 5967 5968 5968 5968 5968 5968 5969 5969 5969 5969 5970 5970 5970 5970 5970 5971 5971 5971 5971 5972 5972 5972 5971 5971 5971 5971 5971 5971 5970 5970 5970 5969 5969 5968 5968 5967 5967 5966
5919 5921 5922 5924 5926 5928 5929 5930 5930 5932 5934 5936 5939 5942 5944 5946 5947 5948 5949 5950 5951 5951 5952 5953 5955 5956 5957 5958 5959 5959 5960 5960 5960 5960 5960 5961 5961 5961 5962 5963 5964 5965 5966 5966 5966 5966 5966 5967 5967 5967 5967 5967 5967 5967 5967 5967 5968 5968 5968 5968 5968 5969 5969 5969 5969 5970 5970 5970 5970 5970 5970 5970 5970 5970 5969 5969 5969 5968 5968 5968 5967 5967 5966 5966 5965
5916 5918 5920 5922 5924 5927 5929 5929 5928 5929 5931 5934 5937 5940 5943 5944 5945 5945 5947 5948 5949 5950 5951 5952 5954 5956 5957 5958 5959 5959 5959 5959 5960 5960 5960 5960 5960 5960 5961 5961 5962 5963 5964 5965 5965 5965 5965 5966 5966 5966 5966 5966 5966 5966 5966 5966 5966 5967 5967 5966 5967 5967 5967 5967 5967 5968 5968 5968 5968 5968 5968 5968 5968 5968 5968 5968 5967 5967 5967 5966 5966 5965 5965 5965 5964
5913 5917 5918 5920 5922 5924 5925 5927 5927 5928 5929 5930 5933 5936 5939 5942 5943 5943 5944 5944 5946 5947 5949 5950 5952 5954 5956 5958 5959 5959 5959 5959 5959 5959 5959 5959 5960 5960 5960 5960 5960 5961 5962 5962 5963 5963 5964 5964 5964 5965 5965 5965 5965 5965 5965 5965 5965 5965 5965 5965 5965 5965 5965 5965 5965 5966 5966 5966 5966 5966 5966 5966 5966 5966 5966 5966 5966 5966 5965 5965 5964 5964 5964 5963 5963
5912 5914 5916 5917 5919 5920 5922 5924 5925 5926 5926 5928 5930 5932 5935 5938 5941 5942 5942 5942 5943 5944 5946 5947 5949 5951 5953 5955 5957 5957 5958 5958 5958 5958 5958 5958 5958 5958 5959 5959 5959 5959 5960 5960 5961 5961 5962 5962 5962 5963 5963 5963 5963 5964 5964 5964 5964 5964 5964 5964 5964 5964 5964 5964 5964 5964 5964 5964 5964 5964 5964 5964 5964 5964 5965 5965 5965 5964 5964 5964 5963 5963 5962 5962 5961
5909 5911 5913 5914 5916 5917 5919 5921 5923 5924 5925 5926 5928 5930 5932 5935 5938 5940 5941 5941 5941 5942 5943 5944 5945 5947 5949 5951 5953 5954 5955 5955 5955 5955 5956 5956 5956 5957 5957 5957 5958 5958 5958 5959 5959 5960 5960 5960 5960 5961 5961 5961 5962 5962 5962 5962 5962 5962 5962 5962 5962 5962 5962 5962 5962 5962 5962 5962 5962 5962 5962 5962 5962 5963 5963 5963 5963 5963 5963 5963 5962 5961 5961 5960 5959
5906 5908 5909 5911 5912 5914 5917 5919 5920 5922 5923 5924 5925 5927 5929 5932 5934 5937 5939 5940 5939 5940 5941 5941 5942 5943 5945 5947 5949 5951 5952 5952 5953 5953 5953 5954 5954 5955 5955 5956 5956 5956 5957 5957 5958 5958 5958 5958 5958 5959 5959 5959 5959 5959 5960 5960 5960 5960 5960 5960 5960 5960 5960 5960 5960 5960 5960 5960 5960 5960 5960 5960 5961 5961 5961 5961 5961 5962 5961 5961 5961 5960 5959 5959 5957
5904 5905 5906 5907 5909 5912 5914 5916 5918 5919 5920 5921 5923 5924 5926 5928 5931 5934 5936 5937 5937 5937 5938 5939 5940 5940 5941 5943 5946 5948 5950 5950 5950 5951 5951 5952 5952 5953 5953 5954 5954 5954 5955 5955 5956 5956 5956 5957 5957 5957 5957 5957 5957 5957 5957 5957 5957 5957 5957 5957 5957 5957 5958 5958 5958 5958 5958 5958 5958 5958 5958 5958 5958 5959 5959 5959 5959 5960 5959 5959 5959 5959 5958 5957 5956
5903 5904 5904 5905 5907 5908 5910 5912 5914 5916 5917 5919 5920 5921 5923 5925 5928 5931 5933 5934 5935 5935 5936 5937 5937 5938 5939 5941 5943 5945 5947 5948 5948 5949 5949 5950 5950 5951 5951 5952 5952 5952 5952 5953 5953 5953 5954 5955 5955 5955 5955 5955 5954 5954 5955 5955 5955 5955 5955 5955 5955 5955 5955 5955 5955 5956 5956 5956 5956 5956 5956 5956 5956 5957 5957 5957 5957 5958 5957 5957 5957 5956 5956 5956 5954
5902 5902 5903 5904 5904 5905 5907 5908 5910 5912 5914 5916 5917 5919 5921 5923 5926 5928 5930 5931 5932 5933 5934 5934 5935 5936 5937 5939 5940 5942 5943 5944 5945 5945 5946 5946 5947 5948 5949 5949 5950 5950 5950 5950 5950 5950 5951 5951 5952 5952 5952 5952 5952 5952 5952 5952 5952 5953 5953 5953 5953 5953 5953 5954 5954 5954 5954 5954 5954 5954 5954 5954 5955 5955 5955 5955 5956 5956 5955 5955 5954 5954 5954 5953 5952
5899 5900 5902 5903 5902 5903 5904 5905 5907 5909 5911 5913 5915 5916 5918 5920 5923 5925 5926 5928 5929 5930 5931 5932 5933 5934 5935 5936 5937 5939 5940 5941 5941 5941 5942 5942 5943 5944 5945 5946 5947 5947 5947 5947 5947 5947 5947 5948 5948 5949 5949 5949 5949 5949 5949 5950 5950 5950 5950 5951 5951 5951 5952 5952 5952 5952 5952 5952 5952 5952 5952 5952 5953 5953 5952 5953 5953 5953 5953 5953 5952 5951 5951 5950 5950
5899 5899 5900 5900 5901 5902 5902 5903 5904 5906 5908 5910 5912 5914 5915 5917 5919 5921 5923 5924 5926 5927 5928 5929 5931 5932 5933 5934 5934 5935 5936 5937 5938 5939 5939 5939 5941 5942 5943 5944 5945 5945 5945 5945 5945 5945 5945 5945 5946 5946 5946 5946 5947 5946 5947 5947 5947 5948 5948 5949 5949 5949 5950 5950 5950 5949 5949 5950 5950 5951 5950 5950 5951 5951 5950 5950 5951 5951 5951 5950 5950 5948 5948 5947 5947
5897 5897 5896 5897 5899 5900 5901 5901 5902 5904 5905 5907 5909 5910 5912 5914 5916 5917 5919 5920 5922 5923 5925 5926 5927 5928 5930 5931 5931 5931 5931 5932 5934 5936 5937 5938 5939 5941 5942 5943 5944 5944 5945 5944 5944 5944 5944 5944 5944 5944 5945 5945 5945 5945 5945 5945 5945 5946 5947 5947 5947 5947 5948 5948 5947 5947 5947 5948 5948 5948 5948 5948 5948 5948 5948 5948 5948 5948 5948 5948 5947 5945 5944 5945 5945
5893 5894 5894 5895 5896 5897 5898 5899 5901 5903 5904 5904 5905 5907 5908 5910 5912 5913 5915 5916 5917 5919 5920 5921 5923 5923 5925 5926 5927 5928 5928 5929 5931 5933 5935 5936 5937 5938 5938 5939 5940 5941 5942 5942 5942 5942 5942 5942 5942 5943 5943 5944 5943 5943 5943 5944 5945 5945 5946 5946 5946 5947 5947 5946 5945 5945 5945 5945 5945 5946 5946 5946 5946 5946 5946 5946 5945 5944 5944 5945 5943 5941 5941 5942 5942
5889 5891 5893 5894 5895 5896 5898 5899 5900 5902 5902 5902 5902 5903 5905 5907 5908 5910 5911 5912 5913 5914 5916 5917 5918 5919 5920 5921 5922 5923 5924 5926 5928 5930 5932 5933 5934 5934 5934 5934 5935 5936 5937 5937 5938 5938 5938 5938 5938 5938 5939 5939 5939 5939 5940 5941 5943 5944 5944 5944 5945 5946 5946 5944 5943 5943 5943 5943 5943 5944 5944 5944 5943 5943 5943 5942 5942 5941 5941 5941 5940 5938 5939 5940 5939
5885 5887 5889 5891 5892 5894 5895 5897 5898 5899 5899 5900 5900 5900 5902 5905 5906 5907 5908 5909 5910 5911 5912 5913 5914 5915 5916 5917 5918 5919 5920 5922 5925 5928 5929 5929 5929 5929 5930 5930 5931 5931 5931 5931 5932 5933 5934 5934 5934 5935 5935 5935 5934 5934 5934 5935 5937 5939 5940 5941 5943 5943 5942 5939 5939 5941 5941 5941 5942 5942 5941 5941 5940 5939 5939 5938 5938 5937 5937 5937 5936 5935 5936 5937 5936
5880 5882 5884 5886 5888 5889 5891 5892 5893 5894 5896 5897 5898 5898 5898 5900 5902 5903 5904 5906 5907 5908 5909 5909 5910 5911 5912 5913 5915 5917 5918 5919 5922 5924 5925 5924 5924 5924 5924 5925 5925 5925 5926 5927 5928 5929 5930 5931 5931 5932 5932 5932 5931 5931 5930 5930 5932 5934 5935 5937 5939 5939 5937 5935 5936 5937 5938 5939 5939 5939 5939 5938 5937 5936 5936 5935 5934 5933 5933 5933 5933 5933 5933 5934 5933
5876 5878 5879 5881 5883 5885 5887 5889 5890 5891 5892 5893 5894 5895 5895 5896 5897 5898 5900 5902 5904 5905 5905 5906 5907 5908 5909 5910 5912 5914 5915 5916 5918 5918 5918 5918 5918 5918 5918 5919 5920 5920 5922 5924 5925 5927 5928 5928 5928 5927 5927 5927 5928 5927 5927 5927 5928 5929 5931 5932 5933 5934 5933 5933 5934 5934 5934 5935 5935 5935 5935 5934 5933 5933 5932 5931 5930 5929 5928 5929 5930 5930 5931 5931 5930
5872 5874 5875 5877 5879 5881 5883 5884 5886 5888 5889 5890 5891 5892 5892 5893 5894 5895 5897 5899 5900 5901 5902 5903 5904 5905 5906 5907 5908 5910 5911 5912 5912 5913 5913 5912 5912 5913 5915 5915 5916 5917 5919 5921 5922 5923 5923 5923 5923 5922 5922 5922 5923 5922 5923 5923 5923 5925 5927 5927 5927 5927 5928 5929 5930 5930 5931 5931 5931 5931 5931 5930 5929 5928 5927 5926 5925 5924 5924 5925 5926 5927 5927 5926 5926
5868 5869 5871 5872 5874 5875 5877 5879 5881 5883 5885 5886 5887 5888 5889 5890 5891 5893 5894 5895 5896 5897 5898 5900 5901 5901 5902 5903 5904 5906 5906 5907 5907 5907 5908 5908 5908 5909 5911 5912 5912 5913 5915 5916 5917 5917 5917 5917 5917 5917 5917 5918 5918 5919 5919 5919 5920 5921 5922 5922 5921 5921 5922 5923 5925 5925 5926 5926 5927 5927 5927 5926 5925 5924 5922 5921 5920 5919 5920 5921 5922 5922 5921 5921 5921
5863 5864 5866 5867 5868 5870 5872 5873 5875 5877 5880 5882 5883 5884 5885 5886 5887 5889 5890 5891 5893 5893 5894 5896 5897 5897 5898 5899 5900 5900 5901 5901 5902 5902 5903 5903 5904 5905 5906 5906 5906 5908 5910 5911 5911 5911 5912 5912 5913 5913 5914 5914 5914 5915 5915 5916 5916 5916 5917 5917 5917 5917 5917 5918 5918 5919 5920 5922 5922 5923 5923 5922 5921 5920 5918 5917 5916 5917 5918 5918 5917 5917 5916 5916 5916
5857 5859 5860 5862 5863 5864 5866 5867 5869 5871 5874 5876 5878 5879 5881 5882 5883 5884 5885 5887 5888 5889 5890 5891 5892 5892 5893 5894 5895 5895 5896 5896 5897 5897 5898 5899 5899 5899 5900 5900 5900 5902 5904 5906 5907 5907 5907 5907 5907 5908 5909 5910 5910 5910 5910 5910 5910 5911 5911 5911 5912 5911 5911 5911 5912 5913 5915 5917 5917 5918 5918 5917 5916 5915 5915 5914 5914 5915 5915 5914 5913 5912 5911 5911 5911
5852 5853 5855 5856 5858 5859 5860 5861 5863 5865 5867 5869 5871 5873 5875 5876 5877 5879 5880 5881 5882 5883 5885 5886 5887 5887 5888 5889 5890 5890 5890 5891 5891 5892 5893 5894 5895 5895 5895 5895 5895 5896 5898 5900 5901 5902 5902 5902 5902 5902 5903 5904 5905 5905 5905 5905 5904 5905 5905 5905 5905 5906 5906 5906 5906 5908 5909 5911 5912 5912 5913 5912 5912 5912 5913 5912 5912 5911 5910 5909 5908 5907 5906 5906 5907
5846 5847 5849 5850 5852 5854 5855 5856 5857 5859 5860 5862 5864 5866 5868 5870 5871 5873 5874 5875 5876 5878 5879 5880 5882 5882 5882 5883 5884 5885 5885 5886 5886 5887 5888 5889 5890 5891 5891 5890 5890 5891 5893 5894 5895 5896 5897 5897 5896 5896 5897 5898 5898 5899 5899 5899 5899 5899 5899 5899 5899 5900 5900 5900 5901 5902 5903 5904 5906 5907 5908 5909 5909 5909 5910 5909 5908 5907 5904 5901 5902 5903 5902 5902 5903
5839 5841 5843 5844 5846 5848 5850 5851 5852 5853 5854 5856 5858 5859 5861 5863 5865 5866 5868 5869 5870 5871 5873 5875 5876 5876 5877 5877 5878 5878 5879 5880 5881 5882 5883 5884 5885 5885 5885 5885 5885 5886 5887 5888 5889 5890 5891 5891 5891 5890 5890 5891 5891 5892 5893 5893 5893 5893 5894 5894 5894 5894 5894 5895 5896 5897 5898 5899 5900 5901 5903 5903 5903 5904 5905 5904 5903 5901 5897 5895 5896 5899 5898 5898 5899
5833 5834 5836 5838 5840 5842 5843 5845 5846 5847 5848 5849 5851 5852 5854 5856 5858 5859 5861 5862 5864 5865 5867 5868 5869 5870 5871 5871 5872 5872 5873 5874 5876 5877 5878 5878 5879 5880 5880 5880 5880 5881 5882 5883 5883 5884 5884 5885 5885 5884 5884 5884 5884 5885 5886 5887 5887 5888 5888 5889 5889 5890 5890 5891 5892 5894 5894 5893 5893 5894 5895 5896 5897 5898 5898 5898 5897 5895 5892 5891 5893 5894 5894 5894 5895
5826 5828 5829 5831 5833 5834 5836 5838 5839 5841 5842 5843 5844 5846 5847 5849 5851 5853 5854 5855 5857 5859 5861 5861 5863 5864 5865 5865 5866 5866 5866 5867 5869 5870 5872 5872 5873 5874 5875 5875 5875 5876 5876 5877 5878 5878 5878 5879 5879 5878 5878 5878 5879 5880 5880 5880 5881 5883 5884 5885 5885 5886 5887 5888 5889 5889 5888 5887 5887 5888 5888 5889 5890 5891 5892 5892 5892 5890 5887 5887 5888 5889 5888 5888 5889
5818 5820 5822 5824 5825 5827 5828 5830 5832 5833 5835 5836 5838 5840 5841 5842 5844 5846 5847 5849 5850 5852 5854 5855 5856 5858 5858 5859 5859 5860 5860 5861 5862 5863 5865 5866 5867 5869 5869 5869 5869 5870 5871 5872 5873 5873 5873 5873 5873 5873 5873 5873 5874 5875 5875 5875 5877 5878 5880 5881 5882 5882 5883 5884 5884 5883 5881 5881 5882 5882 5882 5883 5885 5886 5886 5887 5887 5886 5884 5883 5883 5883 5882 5882 5883
5809 5811 5813 5815 5817 5819 5821 5823 5824 5826 5828 5830 5832 5834 5835 5836 5837 5839 5841 5842 5843 5845 5847 5849 5850 5851 5852 5852 5853 5854 5854 5855 5856 5857 5858 5860 5861 5862 5863 5863 5864 5864 5865 5867 5868 5868 5868 5868 5868 5868 5868 5869 5870 5870 5870 5871 5872 5873 5875 5876 5877 5878 5879 5879 5878 5877 5877 5876 5876 5876 5877 5877 5879 5880 5881 5882 5882 5881 5880 5878 5877 5877 5876 5876 5877
5801 5803 5805 5807 5809 5811 5813 5815 5817 5818 5820 5822 5824 5826 5829 5830 5831 5832 5833 5835 5836 5837 5839 5841 5843 5844 5844 5846 5847 5847 5848 5848 5849 5850 5852 5854 5855 5856 5857 5857 5858 5859 5859 5861 5862 5863 5863 5864 5864 5864 5864 5864 5865 5865 5866 5866 5867 5868 5869 5871 5873 5874 5874 5873 5872 5872 5872 5871 5871 5871 5872 5871 5871 5873 5875 5875 5875 5875 5875 5874 5872 5871 5871 5872 5872
5794 5795 5797 5799 5801 5803 5805 5807 5809 5811 5813 5814 5816 5818 5820 5822 5824 5825 5826 5827 5829 5830 5832 5833 5835 5836 5838 5839 5839 5840 5840 5842 5843 5844 5845 5846 5848 5849 5850 5851 5852 5853 5854 5855 5856 5857 5858 5859 5859 5859 5859 5859 5860 5860 5861 5861 5862 5863 5865 5866 5868 5869 5868 5867 5867 5867 5866 5866 5866 5867 5866 5865 5865 5866 5867 5868 5869 5870 5871 5870 5868 5866 5866 5867 5867
5786 5788 5789 5791 5793 5795 5797 5799 5801 5803 5804 5806 5807 5809 5811 5813 5815 5817 5819 5820 5822 5823 5825 5826 5827 5829 5830 5831 5832 5833 5834 5835 5836 5838 5839 5839 5840 5842 5843 5844 5846 5847 5848 5849 5850 5852 5853 5853 5854 5854 5855 5855 5855 5856 5856 5857 5857 5858 5859 5860 5862 5863 5863 5862 5861 5861 5861 5861 5861 5861 5860 5860 5859 5859 5860 5861 5863 5864 5865 5864 5862 5861 5861 5861 5862
5778 5780 5782 5784 5786 5787 5788 5790 5791 5793 5795 5797 5799 5800 5802 5804 5806 5808 5810 5812 5814 5816 5817 5819 5820 5821 5822 5823 5824 5826 5827 5828 5829 5830 5831 5833 5834 5835 5836 5838 5839 5840 5841 5843 5844 5845 5846 5847 5848 5848 5849 5850 5850 5851 5852 5852 5852 5853 5854 5855 5856 5857 5857 5856 5856 5856 5856 5857 5856 5856 5855 5855 5854 5854 5854 5855 5856 5857 5858 5858 5857 5856 5856 5856 5856
5770 5772 5774 5776 5777 5778 5780 5781 5782 5784 5786 5788 5790 5791 5793 5795 5797 5799 5801 5803 5805 5807 5809 5810 5812 5813 5814 5815 5816 5818 5820 5821 5822 5823 5824 5825 5827 5828 5829 5830 5831 5832 5833 5834 5836 5838 5839 5840 5841 5842 5843 5844 5845 5846 5846 5847 5847 5848 5848 5849 5850 5851 5851 5851 5850 5850 5851 5851 5851 5850 5850 5850 5849 5849 5849 5849 5850 5851 5851 5851 5851 5851 5850 5850 5850
5763 5765 5766 5767 5769 5770 5771 5772 5773 5775 5776 5778 5780 5782 5784 5785 5787 5789 5791 5793 5795 5797 5799 5801 5803 5805 5806 5807 5808 5810 5811 5813 5814 5816 5817 5818 5819 5820 5821 5821 5822 5824 5825 5826 5828 5830 5831 5832 5834 5835 5836 5837 5838 5839 5840 5841 5842 5842 5843 5843 5844 5845 5845 5845 5845 5845 5845 5845 5845 5845 5845 5845 5844 5843 5843 5844 5844 5845 5845 5845 5845 5844 5844 5844 5844
5755 5757 5758 5759 5761 5762 5763 5764 5765 5766 5767 5769 5771 5772 5774 5776 5777 5779 5781 5783 5785 5787 5789 5791 5793 5795 5796 5798 5799 5801 5802 5804 5806 5807 5809 5810 5810 5811 5812 5813 5813 5814 5816 5817 5819 5821 5823 5825 5826 5827 5829 5830 5831 5832 5833 5834 5835 5836 5837 5837 5838 5839 5839 5839 5839 5839 5839 5839 5839 5839 5839 5839 5839 5838 5838 5838 5838 5838 5839 5839 5839 5839 5838 5838 5838
5748 5750 5751 5752 5753 5754 5755 5756 5757 5758 5759 5760 5762 5763 5764 5766 5768 5769 5771 5773 5775 5777 5779 5781 5783 5784 5786 5788 5790 5791 5793 5795 5797 5798 5800 5801 5802 5802 5803 5804 5804 5805 5807 5808 5810 5812 5815 5817 5818 5820 5821 5822 5823 5825 5826 5827 5828 5829 5830 5830 5831 5832 5833 5833 5833 5833 5833 5833 5833 5833 5833 5833 5832 5832 5832 5832 5832 5832 5832 5833 5833 5833 5833 5832 5832
5741 5743 5743 5744 5745 5746 5747 5748 5749 5750 5752 5753 5754 5755 5756 5757 5759 5760 5762 5763 5765 5767 5768 5770 5773 5774 5775 5777 5779 5781 5783 5785 5787 5788 5789 5791 5792 5792 5793 5794 5794 5795 5797 5799 5802 5804 5806 5808 5810 5811 5812 5814 5815 5816 5818 5819 5819 5820 5822 5823 5824 5825 5825 5826 5826 5826 5826 5827 5827 5827 5827 5826 5826 5826 5826 5826 5826 5826 5826 5827 5827 5827 5826 5826 5826
5735 5736 5737 5738 5738 5739 5739 5741 5742 5743 5744 5745 5746 5748 5749 5750 5751 5752 5753 5754 5756 5757 5758 5760 5762 5763 5765 5766 5768 5771 5773 5774 5776 5777 5778 5779 5780 5781 5782 5783 5784 5785 5787 5790 5792 5795 5797 5799 5800 5802 5803 5805 5806 5808 5809 5810 5811 5812 5813 5814 5815 5817 5817 5818 5818 5818 5819 5819 5820 5820 5820 5820 5819 5819 5819 5819 5819 5819 5820 5820 5820 5820 5820 5820 5820
5728 5729 5730 5730 5731 5731 5732 5733 5735 5736 5737 5738 5739 5740 5741 5742 5743 5744 5745 5746 5747 5748 5749 5750 5752 5753 5754 5755 5757 5760 5762 5763 5764 5765 5766 5768 5769 5770 5770 5772 5773 5775 5777 5779 5782 5785 5787 5789 5791 5792 5793 5795 5796 5798 5800 5801 5802 5803 5804 5805 5806 5808 5809 5809 5809 5810 5810 5811 5812 5812 5812 5812 5812 5812 5812 5812 5812 5812 5812 5813 5813 5813 5813 5813 5814
5720 5721 5722 5723 5724 5724 5725 5726 5727 5728 5729 5729 5730 5731 5732 5733 5734 5735 5736 5737 5738 5738 5740 5741 5742 5743 5744 5745 5746 5748 5750 5752 5752 5753 5754 5755 5757 5758 5759 5761 5763 5765 5767 5768 5770 5772 5775 5779 5781 5782 5784 5785 5786 5788 5789 5791 5793 5794 5795 5796 5797 5799 5800 5800 5801 5801 5801 5802 5803 5804 5804 5804 5805 5805 5805 5804 5804 5804 5805 5805 5805 5806 5806 5806 5806
5712 5713 5714 5715 5716 5717 5718 5718 5719 5720 5720 5721 5721 5722 5723 5724 5725 5726 5726 5727 5728 5729 5730 5731 5732 5733 5734 5734 5735 5737 5739 5740 5740 5741 5742 5743 5744 5746 5748 5750 5752 5754 5755 5757 5758 5760 5762 5766 5769 5771 5773 5775 5776 5777 5779 5780 5782 5784 5785 5787 5788 5790 5790 5791 5791 5792 5793 5793 5794 5794 5795 5795 5796 5796 5796 5797 5796 5797 5797 5798 5798 5798 5798 5798 5797
5704 5705 5706 5707 5708 5709 5710 5710 5711 5711 5711 5712 5713 5713 5714 5715 5715 5716 5716 5717 5718 5719 5720 5721 5721 5722 5723 5724 5725 5726 5727 5727 5727 5728 5729 5730 5731 5733 5735 5738 5740 5742 5743 5744 5745 5747 5749 5752 5755 5758 5762 5764 5765 5767 5768 5770 5771 5773 5775 5777 5779 5781 5781 5781 5782 5783 5784 5784 5785 5786 5786 5786 5787 5787 5787 5788 5788 5789 5789 5790 5789 5789 5789 5789 5789
5696 5697 5698 5699 5700 5701 5701 5702 5702 5702 5702 5703 5703 5704 5704 5704 5705 5705 5705 5706 5706 5707 5708 5709 5710 5711 5711 5712 5713 5714 5715 5715 5715 5716 5717 5718 5719 5721 5723 5725 5727 5728 5730 5731 5732 5734 5736 5739 5741 5744 5748 5751 5753 5755 5757 5758 5760 5762 5764 5766 5769 5770 5771 5772 5773 5774 5774 5775 5776 5777 5777 5778 5778 5778 5778 5779 5779 5780 5780 5781 5781 5781 5781 5781 5781
5687 5688 5689 5690 5691 5692 5693 5693 5694 5693 5693 5693 5694 5694 5694 5694 5694 5694 5694 5694 5694 5695 5696 5697 5697 5698 5699 5700 5701 5702 5702 5703 5703 5704 5704 5706 5707 5709 5710 5711 5712 5714 5715 5717 5719 5721 5722 5724 5727 5730 5733 5736 5739 5742 5745 5746 5748 5750 5752 5755 5757 5759 5761 5762 5763 5764 5765 5765 5766 5767 5768 5768 5769 5769 5769 5769 5770 5770 5771 5772 5772 5772 5772 5772 5772
5679 5680 5680 5681 5682 5683 5683 5684 5684 5684 5684 5684 5684 5684 5683 5683 5684 5684 5683 5683 5682 5682 5683 5684 5684 5685 5686 5687 5688 5689 5689 5690 5691 5691 5692 5693 5695 5696 5697 5697 5698 5699 5701 5703 5705 5706 5708 5710 5712 5715 5718 5721 5724 5727 5731 5733 5736 5738 5740 5743 5745 5747 5749 5751 5753 5754 5755 5756 5757 5757 5758 5759 5759 5760 5760 5760 5761 5761 5761 5762 5763 5763 5764 5764 5764
5671 5671 5672 5672 5673 5673 5674 5674 5674 5674 5674 5674 5674 5674 5673 5673 5673 5672 5672 5671 5671 5671 5671 5671 5672 5673 5673 5674 5675 5676 5676 5677 5678 5678 5678 5679 5681 5682 5683 5684 5685 5686 5687 5688 5690 5692 5694 5696 5697 5700 5702 5705 5708 5712 5716 5719 5722 5725 5727 5730 5732 5735 5737 5739 5741 5743 5744 5745 5746 5747 5748 5749 5749 5750 5750 5751 5751 5751 5752 5752 5753 5754 5754 5754 5754
5664 5664 5664 5664 5664 5664 5664 5664 5664 5664 5664 5663 5663 5663 5662 5662 5661 5661 5660 5660 5660 5659 5659 5659 5660 5660 5660 5661 5661 5662 5663 5664 5664 5664 5665 5665 5666 5667 5668 5669 5670 5671 5673 5674 5675 5677 5679 5681 5683 5685 5688 5690 5693 5697 5700 5704 5707 5710 5713 5716 5719 5721 5724 5727 5729 5731 5732 5734 5735 5737 5738 5738 5739 5740 5741 5741 5742 5742 5742 5743 5743 5744 5744 5744 5745